GW0692 Weather Reports


Display with metric or nautical units.
time (UTC)temp
F
wind
direction
speed
MPH
gust
MPH
rain 1hr
in
rain 24hr
in
rain mn
in
humidity
%
barometer
mb
20260506232904 57 314 3.0 5.0 0.00 0.00 0.00 44 1016.5
20260506232400 56 85 3.0 5.0 0.00 0.00 0.00 46 1016.4
20260506231856 56 27 4.0 9.0 0.00 0.00 0.00 46 1016.3
20260506231353 56 222 5.0 9.0 0.00 0.00 0.00 47 1016.4
20260506230846 56 298 7.0 9.0 0.00 0.00 0.00 46 1016.3
20260506230342 54 332 5.0 9.0 0.00 0.00 0.00 46 1016.2
20260506225838 55 232 8.0 12.0 0.00 0.00 0.00 42 1016.4
20260506225336 56 269 11.0 15.0 0.00 0.00 0.00 38 1015.7
20260506224833 55 241 8.0 12.0 0.00 0.00 0.00 39 1015.9
20260506224330 55 240 12.0 21.0 0.00 0.00 0.00 40 1015.7
20260506223826 55 232 12.0 15.0 0.00 0.00 0.00 39 1015.6
20260506223320 56 213 28.0 32.0 0.00 0.00 0.00 38 1015.3
20260506222819 57 290 9.0 12.0 0.00 0.00 0.00 36 1015.8
20260506222313 57 238 9.0 12.0 0.00 0.00 0.00 35 1015.6
20260506221807 59 273 11.0 14.0 0.00 0.00 0.00 33 1015.3
20260506221304 58 283 9.0 10.0 0.00 0.00 0.00 34 1015.2
20260506220801 59 245 12.0 15.0 0.00 0.00 0.00 33 1015.2
20260506220256 59 252 13.0 15.0 0.00 0.00 0.00 32 1015.3
20260506215753 61 223 13.0 22.0 0.00 0.00 0.00 31 1015.1
20260506215249 59 288 11.0 14.0 0.00 0.00 0.00 32 1015.3
20260506214745 60 230 9.0 10.0 0.00 0.00 0.00 33 1015.4
20260506214242 60 254 11.0 15.0 0.00 0.00 0.00 33 1015.3
20260506213741 60 229 5.0 7.0 0.00 0.00 0.00 33 1015.3
20260506213237 59 256 12.0 15.0 0.00 0.00 0.00 33 1015.3
20260506212735 58 247 11.0 15.0 0.00 0.00 0.00 35 1015.6
20260506212230 57 306 10.0 12.0 0.00 0.00 0.00 36 1015.6
20260506211726 56 284 7.0 9.0 0.00 0.00 0.00 38 1015.6
20260506211222 56 241 7.0 9.0 0.00 0.00 0.00 36 1015.6
20260506210719 54 247 7.0 9.0 0.00 0.00 0.00 44 1015.9
20260506210216 55 226 8.0 10.0 0.00 0.00 0.00 43 1015.9
20260506205713 56 216 8.0 10.0 0.00 0.00 0.00 38 1016.0
20260506205208 59 322 10.0 14.0 0.00 0.00 0.00 35 1015.7
20260506204706 60 277 9.0 12.0 0.00 0.00 0.00 35 1015.8
20260506204203 59 235 11.0 15.0 0.00 0.00 0.00 35 1015.7
20260506203701 59 221 6.0 9.0 0.00 0.00 0.00 37 1015.9
20260506203158 58 250 9.0 14.0 0.00 0.00 0.00 37 1015.8
20260506202655 56 275 9.0 12.0 0.00 0.00 0.00 39 1016.2
20260506202151 55 286 4.0 7.0 0.00 0.00 0.00 41 1016.0
20260506201649 55 259 10.0 14.0 0.00 0.00 0.00 41 1016.0
20260506201145 56 290 8.0 12.0 0.00 0.00 0.00 40 1015.8
20260506200642 56 217 6.0 9.0 0.00 0.00 0.00 41 1016.2
20260506200138 57 295 9.0 12.0 0.00 0.00 0.00 40 1016.2
20260506195635 55 299 9.0 10.0 0.00 0.00 0.00 41 1016.3
20260506195131 55 316 12.0 17.0 0.00 0.00 0.00 41 1016.2
20260506194629 57 279 12.0 21.0 0.00 0.00 0.00 41 1016.0
20260506194125 59 310 9.0 15.0 0.00 0.00 0.00 38 1016.2
20260506193623 58 345 7.0 12.0 0.00 0.00 0.00 39 1016.4
20260506193120 57 321 6.0 9.0 0.00 0.00 0.00 40 1016.0
20260506192617 57 306 11.0 15.0 0.00 0.00 0.00 40 1016.3
20260506192112 57 282 11.0 15.0 0.00 0.00 0.00 40 1016.2
20260506191609 56 260 6.0 9.0 0.00 0.00 0.00 41 1016.3
20260506191105 56 184 4.0 5.0 0.00 0.00 0.00 41 1016.5
20260506190603 56 224 12.0 17.0 0.00 0.00 0.00 42 1016.5
20260506190100 56 203 5.0 7.0 0.00 0.00 0.00 41 1016.4
20260506185557 55 249 8.0 10.0 0.00 0.00 0.00 42 1016.7
20260506185053 55 259 9.0 10.0 0.00 0.00 0.00 42 1016.7
20260506184550 55 280 7.0 9.0 0.00 0.00 0.00 42 1016.5
20260506184048 54 225 8.0 10.0 0.00 0.00 0.00 44 1016.2
20260506183544 53 235 11.0 15.0 0.00 0.00 0.00 43 1016.4
20260506183040 53 286 9.0 14.0 0.00 0.00 0.00 45 1016.3
20260506182538 53 268 11.0 14.0 0.00 0.00 0.00 45 1016.5
20260506182035 53 307 12.0 15.0 0.00 0.00 0.00 46 1016.7
20260506181533 52 296 9.0 14.0 0.00 0.00 0.00 47 1016.2
20260506181029 52 277 18.0 21.0 0.00 0.00 0.00 47 1016.5
20260506180526 53 264 7.0 9.0 0.00 0.00 0.00 47 1016.5
20260506180023 52 233 8.0 10.0 0.00 0.00 0.00 47 1016.5
20260506175519 53 254 10.0 12.0 0.00 0.00 0.00 46 1016.5
20260506175016 52 243 10.0 10.0 0.00 0.00 0.00 48 1016.8
20260506174514 51 242 11.0 14.0 0.00 0.00 0.00 48 1016.9
20260506174010 51 309 12.0 15.0 0.00 0.00 0.00 49 1016.7
20260506173508 52 212 11.0 14.0 0.00 0.00 0.00 48 1016.7
20260506173005 51 264 11.0 14.0 0.00 0.00 0.00 49 1016.8
20260506172502 50 226 6.0 9.0 0.00 0.00 0.00 51 1016.9
20260506171958 49 275 9.0 12.0 0.00 0.00 0.00 53 1016.8
20260506171455 51 224 8.0 12.0 0.00 0.00 0.00 51 1016.8
20260506170953 51 247 6.0 7.0 0.00 0.00 0.00 51 1016.7
20260506170449 50 229 13.0 17.0 0.00 0.00 0.00 51 1016.4
20260506165948 49 258 5.0 7.0 0.00 0.00 0.00 54 1016.5
20260506165446 50 285 9.0 10.0 0.00 0.00 0.00 53 1016.8
20260506164942 50 253 7.0 9.0 0.00 0.00 0.00 53 1016.5
20260506164439 50 258 7.0 10.0 0.00 0.00 0.00 53 1016.5
20260506163937 49 287 7.0 12.0 0.00 0.00 0.00 54 1016.7
20260506163431 48 244 8.0 12.0 0.00 0.00 0.00 56 1016.5
20260506162927 48 247 10.0 14.0 0.00 0.00 0.00 55 1016.3
20260506162425 48 266 9.0 15.0 0.00 0.00 0.00 56 1016.8
20260506161922 48 293 13.0 17.0 0.00 0.00 0.00 56 1016.7
20260506161420 47 264 7.0 10.0 0.00 0.00 0.00 58 1016.7
20260506160917 47 236 8.0 10.0 0.00 0.00 0.00 59 1016.5
20260506160414 46 266 5.0 5.0 0.00 0.00 0.00 59 1016.5
20260506155912 46 247 7.0 10.0 0.00 0.00 0.00 59 1016.8
20260506155409 46 248 4.0 7.0 0.00 0.00 0.00 60 1016.4
20260506153531 44 290 8.0 10.0 0.00 0.00 0.00 64 1016.2
20260506153028 44 294 7.0 14.0 0.00 0.00 0.00 64 1016.2
20260506152525 44 273 12.0 19.0 0.00 0.00 0.00 63 1016.2
20260506152023 44 261 9.0 12.0 0.00 0.00 0.00 65 1016.0
20260506151521 44 255 12.0 17.0 0.00 0.00 0.00 65 1016.5
20260506151018 43 261 7.0 10.0 0.00 0.00 0.00 67 1016.5
20260506150514 43 213 6.0 9.0 0.00 0.00 0.00 67 1016.5
20260506150011 44 244 6.0 10.0 0.00 0.00 0.00 67 1016.8
20260506145507 43 261 6.0 7.0 0.00 0.00 0.00 67 1016.9
20260506145005 42 251 8.0 12.0 0.00 0.00 0.00 69 1016.7
20260506144502 42 280 7.0 9.0 0.00 0.00 0.00 69 1016.4
20260506143959 42 319 5.0 7.0 0.00 0.00 0.00 69 1016.5
20260506143456 42 302 7.0 9.0 0.00 0.00 0.00 70 1016.3
20260506142955 41 255 8.0 12.0 0.00 0.00 0.00 70 1016.2
20260506142452 41 283 13.0 15.0 0.00 0.00 0.00 71 1016.0
20260506141950 41 274 10.0 12.0 0.00 0.00 0.00 72 1016.0
20260506141448 41 231 12.0 15.0 0.00 0.00 0.00 72 1015.6
20260506140946 41 286 8.0 10.0 0.00 0.00 0.00 73 1015.9
20260506140443 40 302 13.0 21.0 0.00 0.00 0.00 74 1015.9
20260506135939 40 248 13.0 19.0 0.00 0.00 0.00 75 1015.8
20260506135437 40 264 9.0 12.0 0.00 0.00 0.00 76 1016.0
20260506134933 40 253 8.0 12.0 0.00 0.00 0.00 77 1015.7
20260506134429 39 227 9.0 14.0 0.00 0.00 0.00 78 1016.0
20260506133926 39 214 11.0 15.0 0.00 0.00 0.00 79 1016.0
20260506133423 39 265 10.0 12.0 0.00 0.00 0.00 79 1016.0
20260506132920 39 307 8.0 12.0 0.00 0.00 0.00 80 1015.7
20260506132417 38 302 7.0 10.0 0.00 0.00 0.00 80 1015.7
20260506131914 38 316 8.0 15.0 0.00 0.00 0.00 80 1016.0
20260506131410 38 261 10.0 17.0 0.00 0.00 0.00 82 1015.3
20260506130908 38 243 7.0 10.0 0.00 0.00 0.00 83 1015.7
20260506130404 37 252 6.0 9.0 0.00 0.00 0.00 84 1015.8
20260506125902 37 252 4.0 5.0 0.00 0.00 0.00 84 1016.2
20260506125400 37 269 3.0 3.0 0.00 0.00 0.00 83 1015.8
20260506124858 37 278 5.0 7.0 0.00 0.00 0.00 82 1015.6
20260506124355 37 280 8.0 10.0 0.00 0.00 0.00 83 1015.1
20260506123853 37 316 9.0 12.0 0.00 0.00 0.00 83 1015.1
20260506123351 37 241 9.0 10.0 0.00 0.00 0.00 83 1015.1
20260506122848 37 234 7.0 14.0 0.00 0.00 0.00 84 1015.2
20260506122344 36 282 7.0 10.0 0.00 0.00 0.00 85 1015.2
20260506121843 36 252 12.0 19.0 0.00 0.00 0.00 86 1015.1
20260506121340 36 270 7.0 10.0 0.00 0.00 0.00 86 1015.1
20260506120837 36 261 11.0 14.0 0.00 0.00 0.00 86 1015.1
20260506120334 36 260 8.0 10.0 0.00 0.00 0.00 86 1015.2
20260506115831 36 268 13.0 22.0 0.00 0.00 0.00 86 1015.2
20260506115330 36 251 8.0 10.0 0.00 0.00 0.00 86 1014.9
20260506114827 36 270 9.0 12.0 0.00 0.00 0.00 87 1015.2
20260506114325 36 252 7.0 9.0 0.00 0.00 0.00 87 1015.1
20260506113823 35 265 5.0 7.0 0.00 0.00 0.00 87 1015.3
20260506113321 35 267 3.0 5.0 0.00 0.00 0.00 87 1015.4
20260506112817 35 265 6.0 7.0 0.00 0.00 0.00 87 1015.4
20260506112315 36 261 4.0 5.0 0.00 0.00 0.00 86 1015.4
20260506111812 36 250 6.0 10.0 0.00 0.00 0.00 85 1015.4
20260506111310 36 271 6.0 7.0 0.00 0.00 0.00 85 1015.4
20260506110807 36 250 5.0 5.0 0.00 0.00 0.00 85 1015.2
20260506110304 36 273 10.0 14.0 0.00 0.00 0.00 85 1015.2
20260506105800 36 273 7.0 9.0 0.00 0.00 0.00 86 1014.8
20260506105257 36 261 9.0 14.0 0.00 0.00 0.00 86 1014.8
20260506104755 36 336 7.0 9.0 0.00 0.00 0.00 86 1014.9
20260506104253 36 224 6.0 9.0 0.00 0.00 0.00 86 1015.1
20260506103750 36 262 9.0 12.0 0.00 0.00 0.00 86 1014.8
20260506103247 36 278 8.0 10.0 0.00 0.00 0.00 85 1014.8
20260506102744 36 296 6.0 10.0 0.00 0.00 0.00 85 1015.1
20260506102242 36 245 7.0 10.0 0.00 0.00 0.00 86 1014.8
20260506101739 36 312 6.0 7.0 0.00 0.00 0.00 87 1014.9
20260506101235 36 274 7.0 9.0 0.00 0.00 0.00 87 1015.2
20260506100733 36 257 6.0 10.0 0.00 0.00 0.00 87 1014.9
20260506100231 37 285 6.0 10.0 0.00 0.00 0.00 86 1014.9
20260506095730 37 248 8.0 10.0 0.00 0.00 0.00 85 1014.7
20260506095226 37 268 7.0 9.0 0.00 0.00 0.00 86 1014.8
20260506094723 37 246 7.0 7.0 0.00 0.00 0.00 86 1014.8
20260506094221 37 265 6.0 9.0 0.00 0.00 0.00 86 1015.1
20260506093720 37 263 7.0 9.0 0.00 0.00 0.00 87 1015.1
20260506093216 37 299 6.0 7.0 0.00 0.00 0.00 87 1014.7
20260506092714 37 261 5.0 7.0 0.00 0.00 0.00 88 1015.1
20260506092211 37 269 7.0 10.0 0.00 0.00 0.00 89 1014.9
20260506091709 37 251 8.0 9.0 0.00 0.00 0.00 89 1014.7
20260506091206 38 239 9.0 12.0 0.00 0.00 0.00 88 1014.8
20260506090704 38 283 6.0 7.0 0.00 0.00 0.00 89 1014.8
20260506090201 38 270 5.0 7.0 0.00 0.00 0.00 89 1014.7
20260506085658 38 258 6.0 7.0 0.00 0.00 0.00 88 1014.9
20260506085153 38 248 7.0 9.0 0.00 0.00 0.00 88 1014.8
20260506084650 38 259 5.0 9.0 0.00 0.00 0.00 89 1014.8
20260506084147 39 283 8.0 12.0 0.00 0.00 0.00 88 1014.9
20260506083644 39 229 6.0 7.0 0.00 0.00 0.00 88 1015.2
20260506083142 39 223 6.0 7.0 0.00 0.00 0.00 87 1014.8
20260506082638 39 254 3.0 3.0 0.00 0.00 0.00 85 1014.8
20260506082134 39 227 6.0 10.0 0.00 0.00 0.00 84 1015.1
20260506081632 39 251 3.0 3.0 0.00 0.00 0.00 85 1015.1
20260506081130 39 291 3.0 3.0 0.00 0.00 0.00 85 1015.2
20260506080627 39 230 4.0 5.0 0.00 0.00 0.00 87 1015.2
20260506080123 38 268 2.0 3.0 0.00 0.00 0.00 89 1015.4
20260506073107 39 250 3.0 3.0 0.00 0.00 0.00 90 1015.2
20260506072604 40 256 3.0 3.0 0.00 0.00 0.00 90 1015.6
20260506072102 40 244 2.0 2.0 0.00 0.00 0.00 90 1015.6
20260506071559 40 306 3.0 3.0 0.00 0.00 0.00 90 1015.2
20260506071057 40 267 2.0 2.0 0.00 0.00 0.00 90 1015.3
20260506070554 40 257 4.0 5.0 0.00 0.00 0.00 89 1015.2
20260506062028 40 264 2.0 3.0 0.00 0.00 0.00 93 1015.2
20260506061523 40 282 3.0 3.0 0.00 0.00 0.00 94 1015.3
20260506061021 40 264 3.0 3.0 0.00 0.00 0.00 95 1015.1
20260506060520 40 239 2.0 3.0 0.00 0.00 0.00 96 1015.3
20260506050948 40 258 2.0 2.0 0.00 0.08 0.08 97 1015.3
20260506050446 40 263 1.0 2.0 0.00 0.08 0.08 97 1015.4
20260506044936 40 277 2.0 2.0 0.05 0.08 0.08 96 1015.3
20260506044435 40 255 3.0 3.0 0.00 0.07 0.07 96 1015.2
20260506043931 40 239 0.0 0.0 0.00 0.07 0.07 96 1015.1
20260506043429 40 236 0.0 0.0 0.00 0.07 0.07 95 1015.1
20260506042926 40 284 4.0 5.0 0.07 0.07 0.07 95 1014.9
20260506042426 40 260 0.0 0.0 0.14 0.07 0.07 94 1014.7
20260506041923 40 250 3.0 5.0 0.19 0.06 0.06 93 1015.2
20260506041421 40 264 0.0 0.0 0.17 0.05 0.05 91 1015.2
20260506040918 41 262 3.0 3.0 0.05 0.03 0.03 90 1015.1
20260506040415 41 215 2.0 3.0 0.00 0.02 0.02 88 1014.8
20260506035911 42 245 3.0 5.0 0.00 0.02 0.02 86 1014.6
20260506035409 42 169 4.0 5.0 0.00 0.02 0.02 85 1014.8
20260506034905 42 188 3.0 5.0 0.00 0.02 0.02 85 1014.7
20260506034403 42 289 5.0 9.0 0.00 0.02 0.02 85 1014.4
20260506033900 42 231 3.0 3.0 0.00 0.02 0.02 85 1014.6
20260506033357 42 157 2.0 2.0 0.00 0.02 0.02 84 1014.6
20260506032854 42 245 3.0 3.0 0.00 0.02 0.02 84 1013.9
20260506032350 42 31 7.0 15.0 0.00 0.02 0.02 84 1013.8
20260506031847 43 274 5.0 9.0 0.00 0.02 0.02 84 1013.9
20260506031345 43 19 2.0 3.0 0.00 0.02 0.02 83 1013.4
20260506030842 44 227 4.0 5.0 0.00 0.02 0.02 81 1013.4
20260506030340 45 248 5.0 9.0 0.00 0.02 0.02 78 1013.6
20260506025837 45 249 1.0 2.0 0.00 0.02 0.02 76 1013.4
20260506025333 45 315 4.0 9.0 0.00 0.02 0.02 75 1013.4
20260506024830 46 262 0.0 2.0 0.00 0.02 0.02 74 1013.2
20260506024327 46 266 0.0 0.0 0.00 0.02 0.02 73 1012.9
20260506023823 47 266 2.0 2.0 0.00 0.02 0.02 72 1013.4
20260506023320 47 257 2.0 3.0 0.00 0.02 0.02 72 1012.9
20260506022817 47 241 3.0 3.0 0.00 0.02 0.02 72 1012.9
20260506022315 47 259 3.0 3.0 0.00 0.02 0.02 72 1012.9
20260506021813 48 257 3.0 3.0 0.00 0.02 0.02 71 1012.8
20260506021309 48 260 2.0 2.0 0.00 0.02 0.02 69 1012.7
20260506020806 48 261 2.0 2.0 0.00 0.02 0.02 68 1012.7
20260506020304 48 278 3.0 5.0 0.00 0.02 0.02 68 1012.7
20260506015801 48 275 3.0 3.0 0.00 0.02 0.02 68 1012.4
20260506015258 49 257 3.0 3.0 0.00 0.02 0.02 67 1012.4
20260506014755 49 257 1.0 2.0 0.00 0.02 0.02 66 1012.1
20260506014252 49 225 3.0 3.0 0.00 0.02 0.02 66 1012.6
20260506013749 50 235 6.0 9.0 0.00 0.02 0.02 66 1012.7
20260506013246 50 226 4.0 5.0 0.00 0.02 0.02 65 1012.2
20260506012742 50 224 5.0 9.0 0.00 0.02 0.02 65 1012.3
20260506012239 50 240 5.0 7.0 0.00 0.02 0.02 64 1012.1
20260506011737 50 267 3.0 3.0 0.00 0.02 0.02 63 1011.8
20260506011233 50 247 6.0 7.0 0.00 0.02 0.02 63 1011.8
20260506010731 50 281 5.0 7.0 0.00 0.02 0.02 63 1012.3
20260506010228 50 245 5.0 9.0 0.00 0.02 0.02 63 1012.2
20260506005725 49 271 7.0 9.0 0.00 0.02 0.02 63 1012.1
20260506005222 50 251 5.0 7.0 0.00 0.02 0.02 62 1011.8
20260506004718 50 205 5.0 7.0 0.00 0.02 0.02 61 1011.8
20260506004216 50 266 6.0 9.0 0.00 0.02 0.02 61 1011.9
20260506003711 50 270 6.0 7.0 0.00 0.02 0.02 61 1012.1
20260506003208 50 224 6.0 9.0 0.00 0.02 0.02 60 1011.8
20260506002704 50 267 10.0 15.0 0.00 0.02 0.02 60 1012.1
20260506002200 51 253 6.0 7.0 0.00 0.02 0.02 59 1011.9
20260506001656 51 247 5.0 7.0 0.00 0.02 0.02 59 1011.9
20260506001154 51 241 7.0 10.0 0.00 0.02 0.02 59 1011.8
20260506000651 51 257 4.0 5.0 0.00 0.02 0.02 58 1011.8
20260506000148 52 261 4.0 7.0 0.00 0.02 0.02 56 1011.9
20260505235646 53 250 6.0 10.0 0.00 0.02 0.02 55 1011.8
20260505235143 51 268 6.0 12.0 0.00 0.02 0.02 58 1011.9
20260505234640 52 247 7.0 9.0 0.00 0.02 0.02 58 1011.9
20260505234137 53 242 6.0 7.0 0.00 0.02 0.02 55 1011.9
20260505233634 53 270 5.0 7.0 0.00 0.02 0.02 57 1011.9